| time (UTC) | temp C | wind direction | speed KPH | gust KPH | rain 1hr cm | rain 24hr cm | rain mn cm | humidity % | barometer mb |
| 20260507183002 | 15 | 252 | 14.5 | 25.7 | 0.00 | 0.00 | 0.00 | 26 | 1009.3 |
| 20260507181603 | 15 | 320 | 24.1 | 37.0 | 0.00 | 0.00 | 0.00 | 26 | 1009.5 |
| 20260507180103 | 15 | 310 | 16.1 | 25.7 | 0.00 | 0.00 | 0.00 | 27 | 1009.5 |
| 20260507174603 | 13 | 339 | 12.9 | 24.1 | 0.00 | 0.00 | 0.00 | 30 | 1009.6 |
| 20260507173100 | 13 | 347 | 16.1 | 43.5 | 0.00 | 0.00 | 0.00 | 35 | 1009.8 |
| 20260507171549 | 12 | 259 | 11.3 | 19.3 | 0.00 | 0.00 | 0.00 | 35 | 1010.1 |
| 20260507170047 | 12 | 288 | 9.7 | 19.3 | 0.00 | 0.00 | 0.00 | 36 | 1010.3 |
| 20260507164600 | 12 | 341 | 3.2 | 11.3 | 0.00 | 0.00 | 0.00 | 39 | 1010.3 |
| 20260507163038 | 11 | 347 | 11.3 | 27.4 | 0.00 | 0.00 | 0.00 | 38 | 1010.5 |
| 20260507161548 | 11 | 60 | 1.6 | 17.7 | 0.00 | 0.00 | 0.00 | 41 | 1010.6 |
| 20260507160032 | 10 | 329 | 0.0 | 9.7 | 0.00 | 0.00 | 0.00 | 43 | 1010.6 |
| 20260507154526 | 10 | 305 | 6.4 | 14.5 | 0.00 | 0.00 | 0.00 | 42 | 1010.7 |
| 20260507153026 | 10 | 39 | 3.2 | 8.0 | 0.00 | 0.00 | 0.00 | 44 | 1010.7 |
| 20260507151517 | 9 | 2 | 4.8 | 11.3 | 0.00 | 0.00 | 0.00 | 46 | 1010.6 |
| 20260507150014 | 9 | 7 | 0.0 | 9.7 | 0.00 | 0.00 | 0.00 | 48 | 1010.7 |
| 20260507144509 | 8 | 82 | 4.8 | 11.3 | 0.00 | 0.00 | 0.00 | 53 | 1010.7 |
| 20260507143006 | 8 | 111 | 3.2 | 9.7 | 0.00 | 0.00 | 0.00 | 54 | 1010.8 |
| 20260507141604 | 7 | 118 | 3.2 | 9.7 | 0.00 | 0.00 | 0.00 | 55 | 1010.8 |
| 20260507140055 | 7 | 87 | 1.6 | 9.7 | 0.00 | 0.00 | 0.00 | 56 | 1011.0 |
| 20260507134551 | 6 | 60 | 1.6 | 6.4 | 0.00 | 0.00 | 0.00 | 56 | 1011.0 |
| 20260507133050 | 6 | 79 | 0.0 | 4.8 | 0.00 | 0.00 | 0.00 | 60 | 1010.9 |
| 20260507131542 | 5 | 144 | 1.6 | 6.4 | 0.00 | 0.00 | 0.00 | 63 | 1010.8 |
| 20260507130042 | 3 | 134 | 1.6 | 4.8 | 0.00 | 0.00 | 0.00 | 65 | 1010.9 |
| 20260507124539 | 3 | 120 | 1.6 | 4.8 | 0.00 | 0.00 | 0.00 | 65 | 1010.8 |
| 20260507123029 | 2 | 236 | 0.0 | 3.2 | 0.00 | 0.00 | 0.00 | 68 | 1010.9 |
| 20260507121524 | 1 | 236 | 0.0 | 1.6 | 0.00 | 0.00 | 0.00 | 72 | 1010.9 |
| 20260507120020 | 0 | 236 | 0.0 | 0.0 | 0.00 | 0.00 | 0.00 | 77 | 1010.8 |
| 20260507114516 | 0 | 236 | 0.0 | 6.4 | 0.00 | 0.00 | 0.00 | 77 | 1010.7 |
| 20260507113033 | -1 | 236 | 1.6 | 6.4 | 0.00 | 0.00 | 0.00 | 78 | 1010.7 |
| 20260507111509 | -1 | 236 | 4.8 | 8.0 | 0.00 | 0.00 | 0.00 | 78 | 1010.6 |
| 20260507110010 | -1 | 211 | 4.8 | 8.0 | 0.00 | 0.00 | 0.00 | 78 | 1010.8 |
| 20260507104504 | 0 | 228 | 4.8 | 6.4 | 0.00 | 0.00 | 0.00 | 75 | 1010.9 |
| 20260507103101 | 0 | 23 | 1.6 | 6.4 | 0.00 | 0.00 | 0.00 | 70 | 1010.9 |
| 20260507101558 | 1 | 23 | 0.0 | 3.2 | 0.00 | 0.00 | 0.00 | 70 | 1011.0 |
| 20260507094557 | 2 | 115 | 1.6 | 9.7 | 0.00 | 0.00 | 0.00 | 65 | 1010.8 |
| 20260507093052 | 2 | 172 | 8.0 | 12.9 | 0.00 | 0.00 | 0.00 | 66 | 1010.6 |
| 20260507091605 | 3 | 157 | 9.7 | 16.1 | 0.00 | 0.00 | 0.00 | 62 | 1010.9 |
| 20260507090050 | 3 | 171 | 12.9 | 22.5 | 0.00 | 0.00 | 0.00 | 61 | 1010.9 |
| 20260507084600 | 3 | 177 | 14.5 | 22.5 | 0.00 | 0.00 | 0.00 | 62 | 1011.1 |
| 20260507083047 | 3 | 171 | 16.1 | 19.3 | 0.00 | 0.00 | 0.00 | 62 | 1011.2 |
| 20260507081553 | 3 | 146 | 6.4 | 9.7 | 0.00 | 0.00 | 0.00 | 62 | 1011.3 |
| 20260507080045 | 3 | 179 | 4.8 | 16.1 | 0.00 | 0.00 | 0.00 | 62 | 1011.3 |
| 20260507074548 | 3 | 149 | 8.0 | 11.3 | 0.00 | 0.00 | 0.00 | 63 | 1011.6 |
| 20260507073040 | 3 | 142 | 9.7 | 14.5 | 0.00 | 0.00 | 0.00 | 61 | 1011.6 |
| 20260507071537 | 2 | 154 | 8.0 | 16.1 | 0.00 | 0.00 | 0.00 | 64 | 1011.9 |
| 20260507070036 | 2 | 155 | 8.0 | 11.3 | 0.00 | 0.00 | 0.00 | 65 | 1012.2 |
| 20260507064538 | 2 | 162 | 11.3 | 16.1 | 0.00 | 0.00 | 0.00 | 65 | 1012.1 |
| 20260507063035 | 2 | 145 | 9.7 | 12.9 | 0.00 | 0.00 | 0.00 | 67 | 1012.3 |
| 20260507061531 | 2 | 148 | 0.0 | 6.4 | 0.00 | 0.00 | 0.00 | 65 | 1012.8 |
| 20260507060029 | 2 | 146 | 4.8 | 9.7 | 0.00 | 0.00 | 0.00 | 65 | 1012.7 |
| 20260507054527 | 2 | 127 | 1.6 | 9.7 | 0.00 | 0.00 | 0.00 | 69 | 1012.9 |
| 20260507053025 | 2 | 359 | 0.0 | 1.6 | 0.00 | 0.00 | 0.00 | 64 | 1013.2 |
| 20260507051523 | 2 | 359 | 0.0 | 0.0 | 0.00 | 0.00 | 0.00 | 63 | 1013.2 |
| 20260507050026 | 2 | 359 | 0.0 | 0.0 | 0.00 | 0.00 | 0.00 | 65 | 1013.2 |
| 20260507044520 | 2 | 359 | 0.0 | 1.6 | 0.00 | 0.00 | 0.00 | 64 | 1013.4 |
| 20260507043025 | 2 | 359 | 0.0 | 1.6 | 0.00 | 0.00 | 0.00 | 62 | 1013.4 |
| 20260507041519 | 2 | 359 | 0.0 | 1.6 | 0.00 | 0.00 | 0.00 | 66 | 1013.6 |
| 20260507040019 | 3 | 258 | 0.0 | 0.0 | 0.00 | 0.00 | 0.00 | 63 | 1013.7 |
| 20260507034523 | 2 | 258 | 0.0 | 3.2 | 0.00 | 0.00 | 0.00 | 64 | 1013.7 |
| 20260507033018 | 1 | 258 | 1.6 | 4.8 | 0.00 | 0.00 | 0.00 | 67 | 1013.7 |
| 20260507031519 | 2 | 359 | 0.0 | 3.2 | 0.00 | 0.00 | 0.00 | 63 | 1013.8 |
| 20260507030017 | 3 | 359 | 0.0 | 1.6 | 0.00 | 0.00 | 0.00 | 60 | 1013.7 |
| 20260507024519 | 3 | 359 | 1.6 | 4.8 | 0.00 | 0.00 | 0.00 | 58 | 1013.6 |
| 20260507023016 | 2 | 359 | 1.6 | 6.4 | 0.00 | 0.00 | 0.00 | 61 | 1013.6 |
| 20260507021515 | 2 | 359 | 1.6 | 4.8 | 0.00 | 0.00 | 0.00 | 62 | 1013.3 |
| 20260507020022 | 3 | 359 | 3.2 | 4.8 | 0.00 | 0.00 | 0.00 | 58 | 1013.3 |
| 20260507014515 | 5 | 359 | 0.0 | 0.0 | 0.00 | 0.00 | 0.00 | 54 | 1013.2 |
| 20260507013020 | 5 | 359 | 0.0 | 3.2 | 0.00 | 0.00 | 0.00 | 52 | 1013.1 |
| 20260507011518 | 6 | 359 | 3.2 | 8.0 | 0.00 | 0.00 | 0.00 | 51 | 1013.1 |
| 20260507010015 | 6 | 360 | 4.8 | 9.7 | 0.00 | 0.00 | 0.00 | 48 | 1013.1 |
| 20260507004512 | 7 | 351 | 6.4 | 11.3 | 0.00 | 0.00 | 0.00 | 46 | 1013.3 |
| 20260507003011 | 7 | 357 | 6.4 | 16.1 | 0.00 | 0.00 | 0.00 | 45 | 1013.4 |
| 20260507001536 | 7 | 360 | 11.3 | 17.7 | 0.00 | 0.00 | 0.00 | 45 | 1013.4 |
| 20260507000014 | 7 | 1 | 11.3 | 17.7 | 0.00 | 0.00 | 0.00 | 46 | 1013.6 |
| 20260506234509 | 8 | 1 | 11.3 | 20.9 | 0.00 | 0.00 | 0.00 | 45 | 1013.6 |
| 20260506233007 | 8 | 1 | 20.9 | 24.1 | 0.00 | 0.00 | 0.00 | 44 | 1013.7 |
| 20260506231506 | 8 | 325 | 14.5 | 25.7 | 0.00 | 0.00 | 0.00 | 44 | 1013.7 |
| 20260506230006 | 8 | 317 | 14.5 | 24.1 | 0.00 | 0.00 | 0.00 | 42 | 1013.8 |
| 20260506224505 | 8 | 319 | 11.3 | 22.5 | 0.00 | 0.00 | 0.00 | 44 | 1013.8 |
| 20260506223004 | 9 | 313 | 19.3 | 27.4 | 0.00 | 0.00 | 0.00 | 43 | 1013.8 |
| 20260506221504 | 9 | 338 | 22.5 | 32.2 | 0.00 | 0.00 | 0.00 | 42 | 1014.0 |
| 20260506220003 | 9 | 313 | 17.7 | 35.4 | 0.00 | 0.00 | 0.00 | 42 | 1014.1 |
| 20260506214501 | 9 | 326 | 19.3 | 27.4 | 0.00 | 0.00 | 0.00 | 42 | 1014.2 |
| 20260506213103 | 8 | 340 | 16.1 | 29.0 | 0.00 | 0.00 | 0.00 | 44 | 1014.3 |
| 20260506211558 | 8 | 299 | 19.3 | 27.4 | 0.00 | 0.00 | 0.00 | 43 | 1014.5 |
| 20260506210059 | 8 | 354 | 19.3 | 29.0 | 0.00 | 0.00 | 0.00 | 44 | 1014.8 |
| 20260506204557 | 8 | 341 | 16.1 | 25.7 | 0.00 | 0.00 | 0.00 | 44 | 1014.9 |
| 20260506203114 | 8 | 335 | 8.0 | 20.9 | 0.00 | 0.00 | 0.00 | 44 | 1015.1 |
| 20260506201553 | 7 | 288 | 14.5 | 29.0 | 0.00 | 0.00 | 0.00 | 44 | 1015.2 |
| 20260506200056 | 8 | 273 | 12.9 | 27.4 | 0.00 | 0.00 | 0.00 | 44 | 1015.3 |
| 20260506194553 | 8 | 311 | 20.9 | 27.4 | 0.00 | 0.00 | 0.00 | 44 | 1015.4 |
| 20260506193051 | 7 | 313 | 16.1 | 25.7 | 0.00 | 0.00 | 0.00 | 46 | 1015.6 |
| 20260506191548 | 7 | 258 | 14.5 | 30.6 | 0.00 | 0.00 | 0.00 | 46 | 1015.7 |
| 20260506190050 | 7 | 317 | 19.3 | 27.4 | 0.00 | 0.00 | 0.00 | 46 | 1015.8 |
| 20260506184549 | 6 | 316 | 16.1 | 29.0 | 0.00 | 0.00 | 0.00 | 47 | 1015.8 |